Location: Caltech
(34.1382°N, 118.1253°W)
Time: 16:25:52
(UTC-08:00)

AO-7 - Visible Passes

Search period start: 22 January 2017 00:00
Search period end: 01 February 2017 00:00
Orbit: 1440 x 1458 km, 101.6° (Epoch: 22 January)

Date Brightness Start Highest point End Pass type
(mag) Time Alt. Az. Time Alt. Az. Time Alt. Az.
22 Jan ? 02:49:29 10° NNE 02:53:57 30° ENE 02:53:57 30° ENE visible
22 Jan ? 04:42:14 10° N 04:48:53 39° NW 04:48:53 39° NW visible
23 Jan ? 01:52:45 10° ENE 01:53:02 10° ENE 01:53:02 10° ENE visible
23 Jan ? 03:41:53 10° NNE 03:47:57 54° NNE 03:47:57 54° NNE visible
23 Jan ? 05:36:42 10° NNW 05:41:58 19° NW 05:42:53 18° WNW visible
24 Jan ? 02:42:42 10° NE 02:47:02 28° ENE 02:47:02 28° ENE visible
24 Jan ? 04:35:10 10° N 04:41:57 43° NW 04:41:57 43° NW visible
25 Jan ? 03:34:56 10° NNE 03:41:02 53° NNE 03:41:02 53° NNE visible
25 Jan ? 05:29:27 10° NNW 05:35:08 21° WNW 05:35:58 20° WNW visible
26 Jan ? 02:35:55 10° NE 02:40:07 26° ENE 02:40:07 26° ENE visible
26 Jan ? 04:28:07 10° N 04:35:03 47° NW 04:35:03 47° NW visible
27 Jan ? 03:28:00 10° NNE 03:34:08 52° NE 03:34:08 52° NE visible
27 Jan ? 05:22:13 10° N 05:28:17 23° WNW 05:29:04 23° WNW visible
28 Jan ? 02:29:11 10° NE 02:33:13 24° ENE 02:33:13 24° ENE visible
28 Jan ? 04:21:05 10° N 04:28:09 52° NW 04:28:09 52° NW visible
29 Jan ? 03:21:05 10° NNE 03:27:15 51° NE 03:27:15 51° NE visible
29 Jan ? 05:15:02 10° N 05:21:27 26° WNW 05:22:10 25° WNW visible
30 Jan ? 02:22:30 10° NE 02:26:20 22° ENE 02:26:20 22° ENE visible
30 Jan ? 04:14:03 10° N 04:21:16 57° NW 04:21:16 57° NW visible
30 Jan ? 06:11:41 10° NW 06:13:14 11° NW 06:14:48 10° WNW visible
31 Jan ? 03:14:10 10° NNE 03:20:22 48° ENE 03:20:22 48° ENE visible
31 Jan ? 05:07:52 10° N 05:14:35 28° WNW 05:15:18 28° WNW visible
